Time,TemperatureF,DewpointF,PressureIn,WindDirection,WindDirectionDegrees,WindSpeedMPH,WindSpeedGustMPH,Humidity,HourlyPrecipIn,Conditions,Clouds,dailyrainin,SoftwareType,DateUTC
2013-01-24 00:02:00,53.0,48.0,30.15,WNW,293,0.0,-999.0,82,-99.99,,,-99.99,,2013-01-24 08:02:00,
2013-01-24 00:12:00,53.0,48.0,30.15,WNW,293,0.0,-999.0,82,-99.99,,,-99.99,,2013-01-24 08:12:00,
2013-01-24 00:22:00,52.0,47.0,30.15,NW,313,0.0,-999.0,84,-99.99,,,-99.99,,2013-01-24 08:22:00,
2013-01-24 00:32:00,52.0,48.0,30.15,NNE,25,0.0,-999.0,85,-99.99,,,-99.99,,2013-01-24 08:32:00,
2013-01-24 00:42:00,52.0,48.0,30.15,NNE,25,0.0,-999.0,85,-99.99,,,-99.99,,2013-01-24 08:42:00,
2013-01-24 00:52:00,52.0,48.0,30.15,ENE,69,0.0,-999.0,86,-99.99,,,-99.99,,2013-01-24 08:52:00,
2013-01-24 01:02:00,52.0,48.0,30.14,NE,56,0.0,-999.0,87,-99.99,,,-99.99,,2013-01-24 09:02:00,
2013-01-24 01:12:00,52.0,48.0,30.14,NE,56,0.0,-999.0,87,-99.99,,,-99.99,,2013-01-24 09:12:00,
2013-01-24 01:22:00,52.0,48.0,30.14,NE,54,0.0,-999.0,87,-99.99,,,-99.99,,2013-01-24 09:22:00,
2013-01-24 01:32:00,51.0,48.0,30.14,ENE,75,0.0,-999.0,88,-99.99,,,-99.99,,2013-01-24 09:32:00,
2013-01-24 01:42:00,51.0,48.0,30.14,ENE,75,0.0,-999.0,88,-99.99,,,-99.99,,2013-01-24 09:42:00,
2013-01-24 01:52:00,51.0,48.0,30.15,East,83,0.0,-999.0,89,-99.99,,,-99.99,,2013-01-24 09:52:00,
2013-01-24 02:02:00,51.0,48.0,30.15,ENE,69,0.0,-999.0,89,-99.99,,,-99.99,,2013-01-24 10:02:00,
2013-01-24 02:11:00,51.0,48.0,30.15,ENE,69,0.0,-999.0,89,-99.99,,,-99.99,,2013-01-24 10:11:00,
2013-01-24 02:22:00,51.0,48.0,30.14,ENE,71,0.0,-999.0,90,-99.99,,,-99.99,,2013-01-24 10:22:00,
2013-01-24 02:32:00,51.0,48.0,30.15,ENE,57,0.0,-999.0,90,-99.99,,,-99.99,,2013-01-24 10:32:00,
2013-01-24 02:42:00,51.0,48.0,30.15,ENE,57,0.0,-999.0,90,-99.99,,,-99.99,,2013-01-24 10:42:00,
2013-01-24 02:52:00,52.0,49.0,30.15,ENE,58,0.0,-999.0,90,-99.99,,,-99.99,,2013-01-24 10:52:00,
2013-01-24 03:02:00,52.0,49.0,30.14,ENE,58,0.0,-999.0,90,-99.99,,,-99.99,,2013-01-24 11:02:00,
2013-01-24 03:11:00,52.0,49.0,30.14,ENE,58,0.0,-999.0,90,-99.99,,,-99.99,,2013-01-24 11:11:00,
2013-01-24 03:22:00,52.0,49.0,30.14,NE,56,0.0,-999.0,91,-99.99,,,-99.99,,2013-01-24 11:22:00,
2013-01-24 03:32:00,52.0,49.0,30.13,NE,56,0.0,-999.0,91,-99.99,,,-99.99,,2013-01-24 11:32:00,
2013-01-24 03:42:00,52.0,49.0,30.13,NE,56,0.0,-999.0,91,-99.99,,,-99.99,,2013-01-24 11:42:00,
2013-01-24 03:52:00,52.0,49.0,30.13,NE,53,0.0,-999.0,91,-99.99,,,-99.99,,2013-01-24 11:52:00,
2013-01-24 04:03:00,52.0,50.0,30.11,NE,53,0.0,-999.0,92,-99.99,,,-99.99,,2013-01-24 12:03:00,
2013-01-24 04:12:00,52.0,50.0,30.11,NE,53,0.0,-999.0,92,-99.99,,,-99.99,,2013-01-24 12:12:00,
2013-01-24 04:22:00,53.0,51.0,30.12,NE,53,0.0,-999.0,92,-99.99,,,-99.99,,2013-01-24 12:22:00,
2013-01-24 04:32:00,53.0,51.0,30.12,NE,53,0.0,-999.0,92,-99.99,,,-99.99,,2013-01-24 12:32:00,
2013-01-24 04:42:00,53.0,51.0,30.12,NE,53,0.0,-999.0,92,-99.99,,,-99.99,,2013-01-24 12:42:00,
2013-01-24 04:52:00,53.0,51.0,30.12,NE,53,0.0,-999.0,92,-99.99,,,-99.99,,2013-01-24 12:52:00,
2013-01-24 05:02:00,53.0,51.0,30.12,NE,53,0.0,-999.0,93,-99.99,,,-99.99,,2013-01-24 13:02:00,
2013-01-24 05:12:00,53.0,51.0,30.12,NE,53,0.0,-999.0,93,-99.99,,,-99.99,,2013-01-24 13:12:00,
2013-01-24 05:22:00,54.0,52.0,30.12,NE,53,0.0,-999.0,93,-99.99,,,-99.99,,2013-01-24 13:22:00,
2013-01-24 05:32:00,54.0,52.0,30.12,NE,53,0.0,-999.0,93,-99.99,,,-99.99,,2013-01-24 13:32:00,
2013-01-24 05:42:00,54.0,52.0,30.12,NE,53,0.0,-999.0,93,-99.99,,,-99.99,,2013-01-24 13:42:00,
2013-01-24 05:52:00,54.0,52.0,30.12,NE,53,0.0,-999.0,93,-99.99,,,-99.99,,2013-01-24 13:52:00,
2013-01-24 06:02:00,54.0,52.0,30.12,NE,53,0.0,-999.0,93,-99.99,,,-99.99,,2013-01-24 14:02:00,
2013-01-24 06:12:00,54.0,52.0,30.12,NE,53,0.0,-999.0,93,-99.99,,,-99.99,,2013-01-24 14:12:00,
2013-01-24 06:22:00,55.0,53.0,30.12,NE,53,0.0,-999.0,93,-99.99,,,-99.99,,2013-01-24 14:22:00,
2013-01-24 06:33:00,55.0,53.0,30.13,NE,53,0.0,-999.0,94,-99.99,,,-99.99,,2013-01-24 14:33:00,
2013-01-24 06:42:00,55.0,53.0,30.13,NE,53,0.0,-999.0,94,-99.99,,,-99.99,,2013-01-24 14:42:00,
2013-01-24 06:53:00,55.0,53.0,30.14,NE,53,0.0,-999.0,93,-99.99,,,-99.99,,2013-01-24 14:53:00,
2013-01-24 07:03:00,55.0,53.0,30.14,NE,53,0.0,-999.0,94,-99.99,,,-99.99,,2013-01-24 15:03:00,
2013-01-24 07:12:00,55.0,53.0,30.14,NE,53,0.0,-999.0,94,-99.99,,,-99.99,,2013-01-24 15:12:00,
2013-01-24 07:22:00,55.0,53.0,30.15,NE,53,0.0,-999.0,94,-99.99,,,-99.99,,2013-01-24 15:22:00,
2013-01-24 07:32:00,55.0,53.0,30.15,NE,53,0.0,-999.0,94,-99.99,,,-99.99,,2013-01-24 15:32:00,
2013-01-24 07:42:00,56.0,54.0,30.14,NNE,21,0.0,-999.0,94,-99.99,,,-99.99,,2013-01-24 15:42:00,
2013-01-24 07:52:00,56.0,54.0,30.15,NE,55,0.0,-999.0,94,-99.99,,,-99.99,,2013-01-24 15:52:00,
2013-01-24 08:02:00,56.0,54.0,30.14,NE,56,0.0,-999.0,94,-99.99,,,-99.99,,2013-01-24 16:02:00,
2013-01-24 08:12:00,56.0,54.0,30.14,NE,56,0.0,-999.0,94,-99.99,,,-99.99,,2013-01-24 16:12:00,
2013-01-24 08:22:00,56.0,54.0,30.14,ENE,67,0.0,-999.0,94,-99.99,,,-99.99,,2013-01-24 16:22:00,
2013-01-24 08:33:00,56.0,54.0,30.16,ENE,58,0.0,-999.0,94,-99.99,,,-99.99,,2013-01-24 16:33:00,
2013-01-24 08:42:00,56.0,54.0,30.16,ENE,58,0.0,-999.0,94,-99.99,,,-99.99,,2013-01-24 16:42:00,
2013-01-24 09:01:00,56.0,54.0,30.17,East,86,0.0,-999.0,94,-99.99,,,-99.99,,2013-01-24 17:01:00,
2013-01-24 09:11:00,56.0,54.0,30.17,East,86,0.0,-999.0,94,-99.99,,,-99.99,,2013-01-24 17:11:00,
2013-01-24 09:21:00,56.0,54.0,30.17,East,86,0.0,-999.0,94,-99.99,,,-99.99,,2013-01-24 17:21:00,
2013-01-24 09:32:00,56.0,54.0,30.18,NE,51,0.0,-999.0,94,-99.99,,,-99.99,,2013-01-24 17:32:00,
2013-01-24 09:42:00,56.0,54.0,30.18,NE,51,0.0,-999.0,94,-99.99,,,-99.99,,2013-01-24 17:42:00,
2013-01-24 09:51:00,56.0,54.0,30.19,NE,53,0.0,-999.0,94,-99.99,,,-99.99,,2013-01-24 17:51:00,
2013-01-24 10:02:00,56.0,54.0,30.19,ENE,58,0.0,-999.0,94,-99.99,,,-99.99,,2013-01-24 18:02:00,
2013-01-24 10:11:00,57.0,55.0,30.20,ENE,59,0.0,-999.0,94,-99.99,,,-99.99,,2013-01-24 18:11:00,
2013-01-24 10:21:00,57.0,55.0,30.20,ENE,59,0.0,-999.0,94,-99.99,,,-99.99,,2013-01-24 18:21:00,
2013-01-24 10:32:00,57.0,55.0,30.21,ENE,59,0.0,-999.0,94,-99.99,,,-99.99,,2013-01-24 18:32:00,
2013-01-24 10:41:00,57.0,55.0,30.21,ENE,59,0.0,-999.0,94,-99.99,,,-99.99,,2013-01-24 18:41:00,
2013-01-24 10:52:00,57.0,55.0,30.21,NE,44,0.0,-999.0,94,-99.99,,,-99.99,,2013-01-24 18:52:00,
2013-01-24 11:01:00,57.0,55.0,30.21,ESE,115,0.0,-999.0,94,-99.99,,,-99.99,,2013-01-24 19:01:00,
2013-01-24 11:11:00,57.0,55.0,30.21,ESE,115,0.0,-999.0,94,-99.99,,,-99.99,,2013-01-24 19:11:00,
2013-01-24 11:21:00,57.0,55.0,30.20,ENE,74,0.0,-999.0,94,-99.99,,,-99.99,,2013-01-24 19:21:00,
2013-01-24 11:32:00,57.0,55.0,30.20,ESE,110,0.0,-999.0,94,-99.99,,,-99.99,,2013-01-24 19:32:00,
2013-01-24 11:41:00,57.0,55.0,30.20,ENE,78,1.0,-999.0,94,-99.99,,,-99.99,,2013-01-24 19:41:00,
2013-01-24 11:51:00,57.0,55.0,30.20,ENE,78,1.0,-999.0,94,-99.99,,,-99.99,,2013-01-24 19:51:00,
2013-01-24 12:01:00,57.0,55.0,30.19,NE,51,0.0,-999.0,94,-99.99,,,-99.99,,2013-01-24 20:01:00,
2013-01-24 12:11:00,57.0,55.0,30.19,NE,51,0.0,-999.0,94,-99.99,,,-99.99,,2013-01-24 20:11:00,
2013-01-24 12:21:00,57.0,55.0,30.19,ENE,75,0.0,-999.0,94,-99.99,,,-99.99,,2013-01-24 20:21:00,
2013-01-24 12:32:00,57.0,55.0,30.19,East,81,0.0,-999.0,93,-99.99,,,-99.99,,2013-01-24 20:32:00,
2013-01-24 12:42:00,57.0,55.0,30.19,East,81,0.0,-999.0,93,-99.99,,,-99.99,,2013-01-24 20:42:00,
2013-01-24 12:52:00,57.0,55.0,30.19,ESE,115,0.0,-999.0,93,-99.99,,,-99.99,,2013-01-24 20:52:00,
2013-01-24 13:02:00,57.0,55.0,30.18,East,87,1.0,-999.0,92,-99.99,,,-99.99,,2013-01-24 21:02:00,
2013-01-24 13:11:00,57.0,55.0,30.18,East,87,1.0,-999.0,92,-99.99,,,-99.99,,2013-01-24 21:11:00,
2013-01-24 13:22:00,57.0,54.0,30.18,East,82,0.0,-999.0,91,-99.99,,,-99.99,,2013-01-24 21:22:00,
2013-01-24 13:32:00,58.0,55.0,30.17,East,84,0.0,-999.0,90,-99.99,,,-99.99,,2013-01-24 21:32:00,
2013-01-24 13:42:00,58.0,55.0,30.17,East,84,0.0,-999.0,90,-99.99,,,-99.99,,2013-01-24 21:42:00,
2013-01-24 13:52:00,59.0,55.0,30.16,ENE,59,0.0,-999.0,88,-99.99,,,-99.99,,2013-01-24 21:52:00,
2013-01-24 14:02:00,60.0,55.0,30.16,NE,56,0.0,-999.0,85,-99.99,,,-99.99,,2013-01-24 22:02:00,
2013-01-24 14:11:00,60.0,55.0,30.16,NE,56,0.0,-999.0,85,-99.99,,,-99.99,,2013-01-24 22:11:00,
2013-01-24 14:21:00,60.0,54.0,30.16,ESE,111,0.0,-999.0,82,-99.99,,,-99.99,,2013-01-24 22:21:00,
2013-01-24 14:32:00,61.0,55.0,30.15,ESE,111,0.0,-999.0,81,-99.99,,,-99.99,,2013-01-24 22:32:00,
2013-01-24 14:42:00,61.0,55.0,30.15,ESE,111,0.0,-999.0,81,-99.99,,,-99.99,,2013-01-24 22:42:00,
2013-01-24 14:52:00,61.0,54.0,30.15,ESE,106,0.0,-999.0,79,-99.99,,,-99.99,,2013-01-24 22:52:00,
2013-01-24 15:02:00,61.0,54.0,30.15,ENE,78,0.0,-999.0,78,-99.99,,,-99.99,,2013-01-24 23:02:00,
2013-01-24 15:11:00,61.0,54.0,30.15,ENE,78,0.0,-999.0,78,-99.99,,,-99.99,,2013-01-24 23:11:00,
2013-01-24 15:21:00,62.0,55.0,30.15,SE,139,0.0,-999.0,77,-99.99,,,-99.99,,2013-01-24 23:21:00,
2013-01-24 15:31:00,62.0,54.0,30.15,East,86,0.0,-999.0,76,-99.99,,,-99.99,,2013-01-24 23:31:00,
2013-01-24 15:42:00,62.0,54.0,30.15,East,86,0.0,-999.0,76,-99.99,,,-99.99,,2013-01-24 23:42:00,
2013-01-24 15:52:00,62.0,54.0,30.15,East,90,0.0,-999.0,76,-99.99,,,-99.99,,2013-01-24 23:52:00,
2013-01-24 16:01:00,63.0,55.0,30.14,NE,53,0.0,-999.0,76,-99.99,,,-99.99,,2013-01-25 00:01:00,
2013-01-24 16:11:00,63.0,55.0,30.14,NE,53,0.0,-999.0,76,-99.99,,,-99.99,,2013-01-25 00:11:00,
2013-01-24 16:21:00,63.0,55.0,30.15,ENE,69,0.0,-999.0,76,-99.99,,,-99.99,,2013-01-25 00:21:00,
2013-01-24 16:32:00,63.0,55.0,30.14,SE,126,0.0,-999.0,76,-99.99,,,-99.99,,2013-01-25 00:32:00,
2013-01-24 16:41:00,63.0,55.0,30.14,SE,126,0.0,-999.0,76,-99.99,,,-99.99,,2013-01-25 00:41:00,
2013-01-24 16:51:00,62.0,54.0,30.15,SE,127,0.0,-999.0,76,-99.99,,,-99.99,,2013-01-25 00:51:00,
2013-01-24 17:01:00,62.0,55.0,30.16,SE,127,0.0,-999.0,77,-99.99,,,-99.99,,2013-01-25 01:01:00,
2013-01-24 17:11:00,62.0,55.0,30.16,SE,127,0.0,-999.0,77,-99.99,,,-99.99,,2013-01-25 01:11:00,
2013-01-24 17:21:00,62.0,55.0,30.16,SE,126,0.0,-999.0,78,-99.99,,,-99.99,,2013-01-25 01:21:00,
2013-01-24 17:31:00,62.0,55.0,30.16,SE,126,0.0,-999.0,78,-99.99,,,-99.99,,2013-01-25 01:31:00,
2013-01-24 17:41:00,62.0,55.0,30.16,SE,126,0.0,-999.0,78,-99.99,,,-99.99,,2013-01-25 01:41:00,
2013-01-24 17:51:00,61.0,55.0,30.16,SE,127,0.0,-999.0,80,-99.99,,,-99.99,,2013-01-25 01:51:00,
2013-01-24 18:01:00,61.0,55.0,30.15,SE,126,0.0,-999.0,81,-99.99,,,-99.99,,2013-01-25 02:01:00,
2013-01-24 18:11:00,61.0,55.0,30.15,SE,126,0.0,-999.0,81,-99.99,,,-99.99,,2013-01-25 02:11:00,
2013-01-24 18:22:00,60.0,54.0,30.16,SE,127,0.0,-999.0,81,-99.99,,,-99.99,,2013-01-25 02:22:00,
2013-01-24 18:31:00,60.0,54.0,30.16,SE,127,0.0,-999.0,82,-99.99,,,-99.99,,2013-01-25 02:31:00,
2013-01-24 18:42:00,60.0,54.0,30.16,SE,127,0.0,-999.0,82,-99.99,,,-99.99,,2013-01-25 02:42:00,
2013-01-24 18:52:00,60.0,55.0,30.16,SE,127,0.0,-999.0,83,-99.99,,,-99.99,,2013-01-25 02:52:00,
2013-01-24 19:01:00,59.0,54.0,30.15,SE,127,0.0,-999.0,84,-99.99,,,-99.99,,2013-01-25 03:01:00,
2013-01-24 19:11:00,59.0,54.0,30.16,SE,126,0.0,-999.0,85,-99.99,,,-99.99,,2013-01-25 03:11:00,
2013-01-24 19:21:00,59.0,54.0,30.16,SE,126,0.0,-999.0,85,-99.99,,,-99.99,,2013-01-25 03:21:00,
2013-01-24 19:32:00,58.0,54.0,30.15,SE,127,0.0,-999.0,86,-99.99,,,-99.99,,2013-01-25 03:32:00,
2013-01-24 19:41:00,58.0,54.0,30.15,SE,127,0.0,-999.0,86,-99.99,,,-99.99,,2013-01-25 03:41:00,
2013-01-24 19:52:00,58.0,54.0,30.15,SE,127,0.0,-999.0,87,-99.99,,,-99.99,,2013-01-25 03:52:00,
2013-01-24 20:01:00,57.0,53.0,30.15,SE,127,0.0,-999.0,88,-99.99,,,-99.99,,2013-01-25 04:01:00,
2013-01-24 20:11:00,57.0,53.0,30.15,SE,127,0.0,-999.0,88,-99.99,,,-99.99,,2013-01-25 04:11:00,
2013-01-24 20:22:00,57.0,53.0,30.15,SE,127,0.0,-999.0,88,-99.99,,,-99.99,,2013-01-25 04:22:00,
2013-01-24 20:31:00,57.0,53.0,30.15,SE,127,0.0,-999.0,88,-99.99,,,-99.99,,2013-01-25 04:31:00,
2013-01-24 20:41:00,57.0,53.0,30.15,SE,127,0.0,-999.0,88,-99.99,,,-99.99,,2013-01-25 04:41:00,
2013-01-24 20:51:00,57.0,53.0,30.16,SE,126,0.0,-999.0,88,-99.99,,,-99.99,,2013-01-25 04:51:00,
2013-01-24 21:03:00,57.0,54.0,30.16,SE,126,0.0,-999.0,89,-99.99,,,-99.99,,2013-01-25 05:03:00,
2013-01-24 21:12:00,57.0,54.0,30.16,SE,127,0.0,-999.0,89,-99.99,,,-99.99,,2013-01-25 05:12:00,
2013-01-24 21:22:00,57.0,54.0,30.16,SE,127,0.0,-999.0,89,-99.99,,,-99.99,,2013-01-25 05:22:00,
2013-01-24 21:31:00,57.0,54.0,30.16,SE,127,0.0,-999.0,89,-99.99,,,-99.99,,2013-01-25 05:31:00,
2013-01-24 21:42:00,57.0,54.0,30.16,SE,127,0.0,-999.0,89,-99.99,,,-99.99,,2013-01-25 05:42:00,
2013-01-24 21:52:00,57.0,54.0,30.17,SE,127,0.0,-999.0,89,-99.99,,,-99.99,,2013-01-25 05:52:00,
2013-01-24 22:01:00,57.0,54.0,30.17,SE,127,0.0,-999.0,89,-99.99,,,-99.99,,2013-01-25 06:01:00,
2013-01-24 22:11:00,57.0,54.0,30.17,SE,127,0.0,-999.0,89,-99.99,,,-99.99,,2013-01-25 06:11:00,
2013-01-24 22:21:00,57.0,54.0,30.17,SE,127,0.0,-999.0,89,-99.99,,,-99.99,,2013-01-25 06:21:00,
2013-01-24 22:31:00,57.0,54.0,30.18,SE,126,0.0,-999.0,89,-99.99,,,-99.99,,2013-01-25 06:31:00,
2013-01-24 22:41:00,57.0,54.0,30.18,SE,126,0.0,-999.0,89,-99.99,,,-99.99,,2013-01-25 06:41:00,
2013-01-24 22:52:00,57.0,54.0,30.17,SE,126,0.0,-999.0,89,-99.99,,,-99.99,,2013-01-25 06:52:00,
2013-01-24 23:01:00,57.0,54.0,30.17,SE,127,0.0,-999.0,89,-99.99,,,-99.99,,2013-01-25 07:01:00,
2013-01-24 23:11:00,57.0,54.0,30.17,SE,127,0.0,-999.0,89,-99.99,,,-99.99,,2013-01-25 07:11:00,
2013-01-24 23:21:00,57.0,54.0,30.17,SE,127,0.0,-999.0,90,-99.99,,,-99.99,,2013-01-25 07:21:00,
2013-01-24 23:31:00,57.0,54.0,30.17,SE,127,0.0,-999.0,90,-99.99,,,-99.99,,2013-01-25 07:31:00,
2013-01-24 23:41:00,57.0,54.0,30.17,SE,127,0.0,-999.0,90,-99.99,,,-99.99,,2013-01-25 07:41:00,
2013-01-24 23:52:00,57.0,54.0,30.17,SE,127,0.0,-999.0,91,-99.99,,,-99.99,,2013-01-25 07:52:00,